Sussex, NJ

6:45 PM EST on November 18, 2019 (GMT -0500)
Sussex

Weather History for KFWN - September, 2019

Change the Weather History Date:

Friday, September 27, 2019

  Actual Average Record
Temperature  
Mean Temperature 59 °F -  
Max Temperature 75 °F 71 °F 88 °F (2017)
Min Temperature 45 °F 44 °F 27 °F (1957)
Degree Days  
Heating Degree Days 6    
Growing Degree Days 9 (Base 50)    
Moisture  
Dew Point 48 °F    
Average Humidity 77    
Maximum Humidity 100    
Minimum Humidity 34    
Precipitation  
Precipitation 0.00 in - - ()
Sea Level Pressure  
Sea Level Pressure 30.10 in    
Wind  
Wind Speed 1 mph ()    
Max Wind Speed 8 mph    
Max Gust Speed -    
Visibility 6.2 miles    
Events Fog , Rain    
Averages and records for this station are not official NWS values.
T = Trace of Precipitation, MM = Missing Value Source: Averaged Metar Reports

Daily Weather History Graph

Daily Weather History Graph

Search for Another Location

Airport or City:

Astronomy

Sep. 27, 2019 Rise Set
Actual Time 6:50 AM EDT 6:47 PM EDT
Civil Twilight 6:23 AM EDT 7:14 PM EDT
Nautical Twilight 5:51 AM EDT 7:47 PM EDT
Astronomical Twilight 5:18 AM EDT 8:19 PM EDT
Moon 5:07 AM EDT (9/27) 6:37 PM EDT (9/27)
Length of Visible Light 12h 51m
Length of Day
11h 56m
Waning Crescent, 2% of the Moon is Illuminated
Sep 27
Waning Crescent
Sep 28
New
Oct 5
First Quarter
Oct 13
Full
Oct 21
Last Quarter

Hourly Weather History & Observations

Time (EDT) Temp. Windchill Dew Point Humidity Pressure Visibility Wind Dir Wind Speed Gust Speed Precip Events Conditions
12:53 AM 53.1 °F - 53.1 °F 100% 29.97 in 0.2 mi Calm Calm - N/A Fog Fog
1:53 AM 51.1 °F - 50.0 °F 96% 29.99 in 0.2 mi Calm Calm - N/A Fog Fog
2:25 AM 51.1 °F - 48.9 °F 92% 30.01 in 1.5 mi Variable 3.5 mph - N/A   Mostly Cloudy
2:53 AM 48.9 °F - 48.0 °F 97% 30.01 in 0.2 mi Calm Calm - N/A Fog Fog
3:53 AM 48.0 °F - 46.9 °F 96% 30.02 in 0.2 mi Calm Calm - N/A Fog Fog
4:53 AM 46.0 °F - 45.0 °F 96% 30.04 in 0.2 mi Calm Calm - N/A Fog Fog
5:53 AM 46.0 °F 43.9 °F 44.1 °F 93% 30.06 in 0.2 mi SW 4.6 mph - 0.00 in Fog Fog
6:53 AM 45.0 °F - 44.1 °F 97% 30.09 in 0.2 mi Calm Calm - N/A Fog Fog
7:53 AM 46.0 °F - 45.0 °F 96% 30.13 in 0.2 mi Calm Calm - N/A Fog Fog
8:31 AM 48.9 °F - 48.9 °F 100% 30.15 in 1.5 mi Calm Calm - N/A   Overcast
8:33 AM 50.0 °F - 50.0 °F 100% 30.15 in 4.0 mi Calm Calm - N/A   Mostly Cloudy
8:53 AM 51.1 °F - 51.1 °F 100% 30.15 in 10.0 mi Calm Calm - N/A   Scattered Clouds
9:53 AM 59.0 °F - 55.0 °F 87% 30.16 in 10.0 mi Calm Calm - N/A   Clear
10:53 AM 64.9 °F - 54.0 °F 68% 30.16 in 10.0 mi Variable 5.8 mph - N/A   Clear
11:53 AM 69.1 °F - 50.0 °F 51% 30.16 in 10.0 mi Calm Calm - N/A   Partly Cloudy
12:53 PM 71.1 °F - 45.0 °F 39% 30.14 in 10.0 mi Variable 3.5 mph - N/A   Clear
1:53 PM 72.0 °F - 42.1 °F 34% 30.11 in 10.0 mi Variable 3.5 mph - N/A   Clear
2:53 PM 73.0 °F - 45.0 °F 37% 30.10 in 10.0 mi SW 8.1 mph - 0.00 in Rain Light Rain
3:53 PM 73.9 °F - 46.0 °F 37% 30.09 in 10.0 mi SW 6.9 mph - 0.00 in   Clear
4:53 PM 73.0 °F - 46.9 °F 39% 30.09 in 10.0 mi SSW 4.6 mph - N/A   Clear
5:53 PM 72.0 °F - 46.9 °F 41% 30.10 in 10.0 mi SSW 4.6 mph - N/A   Clear
6:53 PM 64.0 °F - 50.0 °F 60% 30.10 in 10.0 mi Calm Calm - N/A   Clear
7:53 PM 57.9 °F - 51.1 °F 78% 30.11 in 10.0 mi Calm Calm - N/A   Clear
8:53 PM 55.9 °F - 50.0 °F 80% 30.13 in 10.0 mi Calm Calm - N/A   Clear
9:53 PM 54.0 °F - 51.1 °F 90% 30.13 in 10.0 mi SSW 4.6 mph - N/A   Clear
10:53 PM 53.1 °F - 50.0 °F 89% 30.13 in 10.0 mi Calm Calm - N/A   Clear
11:53 PM 52.0 °F - 48.9 °F 89% 30.12 in 10.0 mi Calm Calm - N/A   Clear